EW8974 Weather Reports


time (UTC)temp
F
wind
direction
speed
knots
gust
knots
rain 1hr
in
rain 24hr
in
rain mn
in
humidity
%
barometer
mb
20260506012514 78 151 0.0 0.9 0.00 0.00 0.00 78 999.3
20260506012015 79 151 0.0 1.7 0.00 0.00 0.00 78 999.4
20260506011517 79 320 0.0 4.3 0.00 0.00 0.00 78 999.3
20260506011018 79 299 1.7 4.3 0.00 0.00 0.00 78 999.0
20260506010514 79 195 0.9 4.3 0.00 0.00 0.00 77 998.7
20260506010014 79 239 0.9 3.5 0.00 0.00 0.00 77 998.6
20260506005513 79 231 0.9 4.3 0.00 0.00 0.00 77 998.6
20260506005013 80 249 0.9 5.2 0.00 0.00 0.00 77 998.6
20260506004529 80 214 0.9 5.2 0.00 0.00 0.00 76 998.5
20260506004014 80 198 0.9 5.2 0.00 0.00 0.00 76 998.5
20260506003512 80 181 0.9 4.3 0.00 0.00 0.00 76 998.5
20260506003113 80 223 0.9 4.3 0.00 0.00 0.00 75 998.5
20260506002511 81 163 0.9 6.1 0.00 0.00 0.00 75 998.5
20260506002012 81 143 2.6 7.0 0.00 0.00 0.00 74 998.5
20260506001511 81 237 0.9 7.0 0.00 0.00 0.00 74 998.4
20260506001012 81 247 0.9 7.0 0.00 0.00 0.00 75 998.3
20260506000510 81 200 0.9 7.8 0.00 0.00 0.00 75 998.4
20260506000011 81 248 2.6 7.8 0.00 0.00 0.00 74 998.4
20260505235510 82 214 1.7 6.1 0.00 0.00 0.00 74 998.3
20260505235010 82 205 0.9 5.2 0.00 0.00 0.00 73 998.3
20260505234513 82 245 0.9 6.1 0.00 0.00 0.00 73 998.5
20260505234014 82 148 1.7 6.1 0.00 0.00 0.00 72 998.4
20260505233513 83 242 0.9 8.7 0.00 0.00 0.00 72 998.3
20260505233010 83 269 2.6 8.7 0.00 0.00 0.00 71 998.4
20260505232509 83 226 0.9 7.0 0.00 0.00 0.00 71 998.4
20260505232009 83 203 2.6 7.0 0.00 0.00 0.00 70 998.3
20260505231513 84 203 0.9 9.6 0.00 0.00 0.00 69 998.2
20260505231009 84 169 3.5 9.6 0.00 0.00 0.00 69 998.2
20260505230509 85 214 0.9 7.0 0.00 0.00 0.00 68 998.1
20260505230011 86 193 2.6 9.6 0.00 0.00 0.00 67 998.1
20260505225508 86 151 3.5 9.6 0.00 0.00 0.00 66 998.0
20260505225009 87 168 2.6 7.8 0.00 0.00 0.00 66 997.8
20260505224509 87 228 3.5 7.8 0.00 0.00 0.00 65 997.8
20260505224007 87 36 0.9 8.7 0.00 0.00 0.00 66 997.8
20260505223507 88 233 3.5 8.7 0.00 0.00 0.00 64 997.8
20260505223008 88 236 4.3 8.7 0.00 0.00 0.00 64 997.7
20260505222509 88 228 3.5 7.8 0.00 0.00 0.00 64 997.7
20260505222007 88 184 2.6 9.6 0.00 0.00 0.00 63 997.8
20260505221507 88 234 5.2 9.6 0.00 0.00 0.00 62 997.7
20260505221008 89 217 0.9 8.7 0.00 0.00 0.00 62 997.7
20260505220507 89 233 1.7 7.0 0.00 0.00 0.00 62 997.7
20260505220016 89 181 1.7 7.0 0.00 0.00 0.00 62 998.0
20260505215506 89 187 0.9 10.4 0.00 0.00 0.00 62 997.7
20260505215005 89 237 6.1 10.4 0.00 0.00 0.00 58 997.7
20260505214505 89 199 2.6 7.0 0.00 0.00 0.00 61 997.7
20260505214005 89 203 2.6 7.0 0.00 0.00 0.00 61 997.7
20260505213503 89 233 0.9 6.1 0.00 0.00 0.00 62 997.7
20260505213002 89 219 1.7 9.6 0.00 0.00 0.00 61 997.9
20260505212503 89 205 4.3 9.6 0.00 0.00 0.00 59 998.0
20260505212002 89 160 2.6 8.7 0.00 0.00 0.00 59 997.9
20260505211502 89 288 4.3 9.6 0.00 0.00 0.00 60 998.0
20260505211103 89 172 3.5 9.6 0.00 0.00 0.00 60 998.2
20260505210600 89 233 3.5 9.6 0.00 0.00 0.00 61 998.4
20260505210059 89 219 4.3 9.6 0.00 0.00 0.00 59 998.4
20260505205600 89 244 2.6 9.6 0.00 0.00 0.00 60 998.3
20260505205100 89 238 2.6 9.6 0.00 0.00 0.00 60 998.2
20260505204603 89 271 2.6 7.0 0.00 0.00 0.00 61 998.3
20260505204056 89 193 1.7 8.7 0.00 0.00 0.00 61 998.5
20260505203556 88 222 3.5 8.7 0.00 0.00 0.00 61 998.7
20260505203056 88 195 2.6 11.3 0.00 0.00 0.00 62 998.6
20260505202554 88 201 5.2 11.3 0.00 0.00 0.00 61 998.8
20260505202052 87 207 4.3 9.6 0.00 0.00 0.00 63 998.8
20260505201551 87 231 3.5 11.3 0.00 0.00 0.00 64 998.8
20260505201050 87 203 2.6 11.3 0.00 0.00 0.00 64 998.8
20260505200550 87 154 2.6 9.6 0.00 0.00 0.00 64 999.0
20260505200049 86 235 3.5 13.9 0.00 0.00 0.00 65 999.0
20260505195549 86 230 4.3 10.4 0.00 0.00 0.00 65 998.8
20260505195048 86 263 5.2 10.4 0.00 0.00 0.00 63 999.0
20260505194548 86 231 4.3 8.7 0.00 0.00 0.00 64 998.9
20260505194048 86 219 2.6 11.3 0.00 0.00 0.00 66 999.0
20260505193547 86 316 3.5 11.3 0.00 0.00 0.00 64 999.1
20260505193049 86 229 5.2 10.4 0.00 0.00 0.00 65 999.2
20260505192546 86 214 4.3 7.8 0.00 0.00 0.00 64 999.2
20260505192044 85 266 2.6 9.6 0.00 0.00 0.00 67 999.2
20260505191554 85 235 3.5 9.6 0.00 0.00 0.00 66 999.2
20260505191043 85 219 1.7 11.3 0.00 0.00 0.00 67 999.2
20260505190543 84 259 3.5 11.3 0.00 0.00 0.00 67 999.3
20260505190044 84 205 2.6 10.4 0.00 0.00 0.00 67 999.5
20260505185539 84 209 3.5 10.4 0.00 0.00 0.00 66 999.4
20260505185039 84 206 5.2 11.3 0.00 0.00 0.00 68 999.4
20260505184539 83 270 6.1 13.9 0.00 0.00 0.00 67 999.4
20260505184039 83 305 5.2 13.9 0.00 0.00 0.00 67 999.5
20260505183538 84 174 5.2 10.4 0.00 0.00 0.00 67 999.6
20260505183037 83 329 3.5 9.6 0.00 0.00 0.00 68 999.7
20260505182536 83 242 5.2 11.3 0.00 0.00 0.00 68 999.8
20260505182040 83 239 4.3 11.3 0.00 0.00 0.00 68 999.8
20260505181534 83 311 3.5 9.6 0.00 0.00 0.00 69 999.8
20260505181034 82 311 3.5 10.4 0.00 0.00 0.00 71 999.8
20260505180533 82 219 4.3 10.4 0.00 0.00 0.00 70 999.9
20260505180044 82 192 3.5 8.7 0.00 0.00 0.00 70 999.9
20260505175531 82 248 4.3 8.7 0.00 0.00 0.00 70 999.9
20260505175033 81 283 2.6 10.4 0.00 0.00 0.00 71 1000.0
20260505174537 81 305 2.6 10.4 0.00 0.00 0.00 71 999.9
20260505174028 81 342 5.2 13.0 0.00 0.00 0.00 70 999.7
20260505173528 81 284 3.5 13.0 0.00 0.00 0.00 71 999.7
20260505173027 81 238 5.2 12.2 0.00 0.00 0.00 71 999.6
20260505172529 81 172 4.3 12.2 0.00 0.00 0.00 72 999.6
20260505172024 80 196 5.2 11.3 0.00 0.00 0.00 72 999.7
20260505171530 80 263 5.2 11.3 0.00 0.00 0.00 74 999.8
20260505171022 79 224 4.3 11.3 0.00 0.00 0.00 74 999.7
20260505170520 79 224 3.5 12.2 0.00 0.00 0.00 75 1000.0
20260505170025 79 206 4.3 13.0 0.00 0.00 0.00 75 999.9
20260505165523 78 192 4.3 13.9 0.00 0.00 0.00 75 999.9
20260505165019 78 237 4.3 13.9 0.00 0.00 0.00 76 999.8
20260505164520 78 237 6.1 13.9 0.00 0.00 0.00 74 999.8
20260505164020 78 254 5.2 13.0 0.00 0.00 0.00 75 999.6
20260505163518 78 265 4.3 13.9 0.00 0.00 0.00 75 999.7
20260505163021 78 239 6.1 13.9 0.00 0.00 0.00 75 999.7
20260505162516 78 243 5.2 11.3 0.00 0.00 0.00 76 999.8
20260505162014 77 225 5.2 11.3 0.00 0.00 0.00 77 999.9
20260505161514 77 219 4.3 15.6 0.00 0.00 0.00 77 999.8
20260505161012 76 228 5.2 15.6 0.00 0.00 0.00 78 1000.0
20260505160512 76 184 6.1 12.2 0.00 0.00 0.00 77 999.8
20260505153007 75 233 3.5 13.0 0.00 0.00 0.00 80 1000.0
20260505152506 75 218 5.2 12.2 0.00 0.00 0.00 80 999.9
20260505152006 74 245 6.1 12.2 0.00 0.00 0.00 80 999.9
20260505151505 75 248 6.1 12.2 0.00 0.00 0.00 80 999.9
20260505151004 74 240 5.2 12.2 0.00 0.00 0.00 80 1000.0
20260505150505 74 256 7.0 12.2 0.00 0.00 0.00 80 1000.0
20260505140555 73 240 6.1 13.0 0.00 0.00 0.00 83 999.8
20260505124546 69 253 4.3 10.4 0.00 0.00 0.00 88 999.2
20260505124045 69 232 6.1 10.4 0.00 0.00 0.00 88 999.2
20260505123545 69 250 4.3 9.6 0.00 0.00 0.00 88 999.2
20260505123103 69 228 2.6 9.6 0.00 0.00 0.00 88 999.2
20260505122544 69 239 4.3 9.6 0.00 0.00 0.00 88 998.9
20260505122043 69 219 5.2 9.6 0.00 0.00 0.00 88 999.1
20260505121542 69 191 4.3 9.6 0.00 0.00 0.00 89 998.7
20260505121042 69 279 4.3 9.6 0.00 0.00 0.00 89 998.7
20260505120542 69 218 3.5 11.3 0.00 0.00 0.00 88 998.8
20260505120045 69 231 3.5 9.6 0.00 0.00 0.00 88 998.7
20260505115542 69 153 1.7 9.6 0.00 0.00 0.00 88 998.8
20260505115040 69 291 3.5 11.3 0.00 0.00 0.00 88 998.8
20260505114558 69 256 4.3 11.3 0.00 0.00 0.00 88 998.7
20260505114039 69 245 4.3 10.4 0.00 0.00 0.00 88 998.6
20260505113541 69 234 3.5 9.6 0.00 0.00 0.00 88 998.6
20260505113040 69 210 5.2 10.4 0.00 0.00 0.00 88 998.7
20260505112538 69 215 5.2 12.2 0.00 0.00 0.00 89 998.6
20260505112037 69 212 5.2 12.2 0.00 0.00 0.00 88 998.7
20260505111553 69 268 2.6 8.7 0.00 0.00 0.00 88 998.4
20260505111039 69 227 3.5 10.4 0.00 0.00 0.00 88 998.5
20260505110536 69 166 4.3 10.4 0.00 0.00 0.00 88 998.4
20260505102032 69 212 4.3 11.3 0.00 0.00 0.00 87 998.6
20260505101534 69 210 1.7 8.7 0.00 0.00 0.00 87 998.6
20260505101031 69 226 3.5 8.7 0.00 0.00 0.00 87 998.6
20260505100530 69 226 1.7 11.3 0.00 0.00 0.00 87 998.5
20260505100034 69 247 4.3 11.3 0.00 0.00 0.00 87 998.4
20260505095532 69 154 2.6 12.2 0.00 0.00 0.00 87 998.5
20260505095028 69 210 3.5 12.2 0.00 0.00 0.00 87 998.6
20260505094529 69 219 1.7 10.4 0.00 0.00 0.00 87 998.7
20260505094030 69 146 4.3 10.4 0.00 0.00 0.00 87 998.7
20260505093527 69 155 1.7 8.7 0.00 0.00 0.00 87 998.8
20260505093029 69 217 3.5 9.6 0.00 0.00 0.00 87 998.9
20260505092527 69 189 4.3 9.6 0.00 0.00 0.00 87 999.0
20260505092027 69 184 3.5 11.3 0.00 0.00 0.00 87 998.9
20260505091532 69 217 3.5 11.3 0.00 0.00 0.00 87 998.8
20260505091027 69 225 2.6 8.7 0.00 0.00 0.00 87 998.9
20260505090525 69 211 1.7 7.8 0.00 0.00 0.00 87 998.9
20260505090030 69 217 3.5 7.8 0.00 0.00 0.00 87 999.0
20260505085526 69 236 3.5 10.4 0.00 0.00 0.00 87 998.7
20260505085025 69 184 4.3 10.4 0.00 0.00 0.00 87 998.9
20260505084525 69 238 4.3 8.7 0.00 0.00 0.00 87 998.8
20260505084024 69 201 1.7 7.8 0.00 0.00 0.00 87 998.9
20260505083524 69 226 2.6 11.3 0.00 0.00 0.00 87 998.7
20260505083027 69 192 4.3 11.3 0.00 0.00 0.00 87 998.7
20260505082524 69 221 3.5 8.7 0.00 0.00 0.00 87 999.0
20260505082022 69 261 2.6 7.8 0.00 0.00 0.00 87 998.9
20260505081524 69 204 2.6 10.4 0.00 0.00 0.00 87 999.0
20260505081023 69 244 2.6 10.4 0.00 0.00 0.00 87 999.0
20260505080520 69 181 1.7 5.2 0.00 0.00 0.00 87 999.2
20260505080031 69 276 1.7 7.0 0.00 0.00 0.00 87 999.3
20260505075518 69 226 1.7 7.0 0.00 0.00 0.00 87 999.3
20260505075018 69 195 1.7 7.8 0.00 0.00 0.00 87 999.4
20260505074517 69 147 0.9 7.0 0.00 0.00 0.00 87 999.4
20260505074019 69 221 2.6 7.0 0.00 0.00 0.00 87 999.5
20260505073515 69 260 0.9 7.0 0.00 0.00 0.00 87 999.6
20260505073017 69 203 1.7 9.6 0.00 0.00 0.00 86 999.7
20260505072513 69 224 2.6 9.6 0.00 0.00 0.00 86 999.8
20260505072011 69 203 2.6 7.8 0.00 0.00 0.00 86 1000.0
20260505071511 69 164 3.5 8.7 0.00 0.00 0.00 86 1000.1
20260505071014 69 237 3.5 8.7 0.00 0.00 0.00 86 1000.2
20260505070510 69 255 2.6 9.6 0.00 0.00 0.00 85 1000.3
20260505070008 70 239 3.5 9.6 0.00 0.00 0.00 85 1000.2
20260505065508 70 196 2.6 11.3 0.00 0.00 0.00 85 1000.4
20260505065007 70 188 1.7 9.6 0.00 0.00 0.00 85 1000.4
20260505064507 70 207 3.5 9.6 0.00 0.00 0.00 84 1000.5
20260505064007 70 221 3.5 8.7 0.00 0.00 0.00 84 1000.7
20260505063505 70 291 2.6 11.3 0.00 0.00 0.00 84 1000.6
20260505063005 70 225 0.9 11.3 0.00 0.00 0.00 83 1000.6
20260505062504 70 237 3.5 9.6 0.00 0.00 0.00 83 1000.7
20260505062002 71 207 2.6 10.4 0.00 0.00 0.00 83 1000.7
20260505061503 71 229 4.3 10.4 0.00 0.00 0.00 83 1000.7
20260505061004 71 231 1.7 7.0 0.00 0.00 0.00 82 1000.6
20260505060501 71 207 2.6 7.8 0.00 0.00 0.00 82 1000.6
20260505060001 71 236 3.5 8.7 0.00 0.00 0.00 82 1000.6
20260505055600 71 239 2.6 8.7 0.00 0.00 0.00 82 1000.5
20260505055501 71 235 1.7 8.7 0.00 0.00 0.00 81 1000.5
20260505055103 71 224 2.6 8.7 0.00 0.00 0.00 81 1000.5
20260505054605 71 219 3.5 11.3 0.00 0.00 0.00 81 1000.4
20260505054059 71 208 3.5 11.3 0.00 0.00 0.00 81 1000.4
20260505053557 71 230 1.7 7.8 0.00 0.00 0.00 80 1000.5
20260505053110 71 250 0.9 7.8 0.00 0.00 0.00 80 1000.8
20260505052555 71 230 3.5 8.7 0.00 0.00 0.00 80 1000.9
20260505052055 71 177 2.6 8.7 0.00 0.00 0.00 80 1001.0
20260505051554 71 181 2.6 8.7 0.00 0.00 0.00 79 1000.9
20260505051052 72 205 2.6 8.7 0.00 0.00 0.00 79 1000.9
20260505050551 72 237 3.5 10.4 0.00 0.00 0.00 79 1001.0
20260505041610 72 237 2.6 9.6 0.00 0.00 0.00 78 1001.0
20260505041051 72 188 2.6 9.6 0.00 0.00 0.00 78 1001.0
20260505040550 72 155 1.7 9.6 0.00 0.00 0.00 78 1001.0
20260505040050 72 151 2.6 9.6 0.00 0.00 0.00 78 1000.9
20260505035552 72 232 3.5 9.6 0.00 0.00 0.00 78 1001.1
20260505035052 71 263 1.7 8.7 0.00 0.00 0.00 78 1000.9
20260505034549 71 243 2.6 7.0 0.00 0.00 0.00 78 1000.8
20260505034052 72 227 0.0 5.2 0.00 0.00 0.00 78 1000.6
20260505033549 72 179 0.9 7.0 0.00 0.00 0.00 78 1000.8
20260505033049 72 153 1.7 7.0 0.00 0.00 0.00 78 1000.8
20260505032552 72 212 0.9 6.1 0.00 0.00 0.00 78 1000.8
20260505032048 72 285 0.9 6.1 0.00 0.00 0.00 78 1000.8
20260505031553 72 187 0.9 6.1 0.00 0.00 0.00 78 1000.9
20260505031050 72 238 0.9 6.1 0.00 0.00 0.00 77 1001.1
20260505030548 72 200 0.9 7.0 0.00 0.00 0.00 77 1001.0
20260505030047 72 212 2.6 7.0 0.00 0.00 0.00 77 1001.0
20260505025547 72 205 1.7 6.1 0.00 0.00 0.00 77 1000.9
20260505025049 72 155 0.9 6.1 0.00 0.00 0.00 77 1001.0
20260505024548 72 189 1.7 4.3 0.00 0.00 0.00 76 1000.6
20260505024046 72 224 0.9 4.3 0.00 0.00 0.00 76 1000.6
20260505023546 72 243 0.9 5.2 0.00 0.00 0.00 76 1000.7
20260505023048 72 165 0.9 5.2 0.00 0.00 0.00 75 1000.5
20260505022548 72 239 0.9 6.1 0.00 0.00 0.00 75 1000.6
20260505022045 73 227 3.5 6.1 0.00 0.00 0.00 75 1000.5
20260505021547 73 225 1.7 4.3 0.00 0.00 0.00 75 1000.3
20260505021044 73 248 0.9 4.3 0.00 0.00 0.00 74 1000.6
20260505020545 73 253 1.7 6.1 0.00 0.00 0.00 74 1000.4
20260505020044 73 239 0.9 6.1 0.00 0.00 0.00 74 1000.4
20260505015546 73 235 1.7 5.2 0.00 0.00 0.00 73 1000.3
20260505015043 73 248 1.7 5.2 0.00 0.00 0.00 73 1000.5
20260505014545 73 225 0.9 3.5 0.00 0.00 0.00 72 1000.4
20260505014042 74 256 0.9 5.2 0.00 0.00 0.00 72 1000.5
20260505013542 74 260 0.9 6.1 0.00 0.00 0.00 71 1000.4
20260505013042 74 245 2.6 8.7 0.00 0.00 0.00 71 1000.3